Regional Weather Roundup
Issued by NWS

Home | Current Version | Previous Version | Graphics & Text | Print | Product List | Glossary On
Versions: 1 2 3 4 5 6 7 8 9 10 11 12 13 14 15 16 17 18 19 20 21 22 23 24 25 26 27 28 29 30 31 32 33 34 35 36 37 38 39 40 41 42 43 44 45 46 47 48 49 50
494
ASUS44 KLIX 201810
RWRLA
LOUISIANA WEATHER ROUNDUP
NATIONAL WEATHER SERVICE NEW ORLEANS LA
1200 PM CST THU NOV 20 2014

NOTE: "FAIR" INDICATES FEW OR NO CLOUDS BELOW 12,000 FEET WITH NO
      SIGNIFICANT WEATHER AND/OR OBSTRUCTIONS TO VISIBILITY.
      SKY/WX - SKY CONDITION AND SIGNIFICANT WEATHER.
      TMP - AIR TEMPERATURE.    DP   - DEWPOINT TEMPERATURE.
      RH  - RELATIVE HUMIDITY.  PRES - PRESSURE.
      HX  - HEAT INDEX.         WCI  - WIND CHILL INDEX.

*  THESE STATIONS ARE NOT NWS OR FAA STATIONS AND ARE NOT UNDER
   NWS QUALITY CONTROL.

LAZ040-048-061>063-065-066-069-201900-
SOUTHEAST LOUISIANA

CITY           SKY/WX    TMP DP  RH WIND       PRES   REMARKS
N.O. AUDUBON     N/A     67  47  48 MISG        N/A
6HR MIN TEMP:  49; 6HR MAX TEMP:  72;

N.O. INTL ARPT MOSUNNY   66  45  46 SE8       30.26F
6HR MIN TEMP:  45; 6HR MAX TEMP:  69;

N.O. LAKEFRONT PTSUNNY   69  43  38 NW3       30.26F
6HR MIN TEMP:  47; 6HR MAX TEMP:  69;

N.O. DOWNTOWN* MOCLDY    70  45  40 SE6       30.26F
6HR MIN TEMP:  54; 6HR MAX TEMP:  70;

SLIDELL        SUNNY     68  47  46 S7        30.26F
6HR MIN TEMP:  33; 6HR MAX TEMP:  68;

BATON ROUGE    MOSUNNY   67  46  47 S3        30.22F
6HR MIN TEMP:  39; 6HR MAX TEMP:  69;

BOOTHVILLE     PTSUNNY   65  42  43 S7        30.29F
6HR MIN TEMP:  51; 6HR MAX TEMP:  66;

BELLE CHASSE   PTSUNNY   70  44  39 SE7       30.26F
6HR MIN TEMP:  38; 6HR MAX TEMP:  70;

BOGALUSA*        N/A     68  45  43 CALM      30.26F
6HR MIN TEMP:  34; 6HR MAX TEMP:  70;

NEW ROADS*     FAIR      70  47  44 S10       30.22F
6HR MIN TEMP:  41; 6HR MAX TEMP:  70;

GONZALES*      MOCLDY    70  47  43 SE7       30.23F
6HR MIN TEMP:  39; 6HR MAX TEMP:  70;

HAMMOND*       SUNNY     72  43  35 SW6       30.25F
HOUMA*         MOSUNNY   70  46  43 SE10      30.26F
PORT FOURCHON* CLEAR     66  48  52 SE9       30.30F

$$

LAZ041-044-053-054-201900-
SOUTHWEST LOUISIANA

CITY           SKY/WX    TMP DP  RH WIND       PRES   REMARKS
LAKE CHARLES   MOSUNNY   72  52  49 S13       30.19F
6HR MIN TEMP:  45; 6HR MAX TEMP:  72;

LAFAYETTE      PTSUNNY   69  49  48 S15       30.23F
6HR MIN TEMP:  44; 6HR MAX TEMP:  70;

PATTERSON      PTSUNNY   72  48  43 SE6         N/A
6HR MIN TEMP:  43; 6HR MAX TEMP:  72;

SALT POINT       N/A     68  50  52 SE8       30.23F
6HR MIN TEMP:  50; 6HR MAX TEMP:  69; 6HR PCP:  0.01;

NEW IBERIA     PTSUNNY   71  50  47 S14       30.24F
6HR MIN TEMP:  46; 6HR MAX TEMP:  71;

CHENAULT AIRPK PTSUNNY   72  50  46 S12G20    30.20F

$$

LAZ027-028-201900-
CENTRAL LOUISIANA

CITY           SKY/WX    TMP DP  RH WIND       PRES   REMARKS
FORT POLK      CLOUDY    69  51  52 S12       30.18F
6HR MIN TEMP:  44; 6HR MAX TEMP:  70;

ALEXANDRIA INT CLOUDY    69  52  54 S10       30.18F
6HR MIN TEMP:  42; 6HR MAX TEMP:  69;

ALEXANDRIA     PTSUNNY   70  51  51 S10       30.20F
6HR MIN TEMP:  36; 6HR MAX TEMP:  70;


$$

LAZ001-002-201900-
NORTHWEST LOUISIANA

CITY           SKY/WX    TMP DP  RH WIND       PRES   REMARKS
SHREVEPORT     PTSUNNY   66  53  63 S7        30.16F
6HR MIN TEMP:  44; 6HR MAX TEMP:  66;

BARKSDALE AFB  PTSUNNY   63  51  65 S6        30.17F
6HR MIN TEMP:  45; 6HR MAX TEMP:  64;

DTN SHREVEPORT PTSUNNY   63  50  62 S9        30.18F
6HR MIN TEMP:  45; 6HR MAX TEMP:  65;


$$

LAZ014-016-201900-
NORTHEAST LOUISIANA

CITY           SKY/WX    TMP DP  RH WIND       PRES   REMARKS
MONROE         MOSUNNY   64  51  62 N6        30.22F
6HR MIN TEMP:  38; 6HR MAX TEMP:  64;

TALLULAH       CLOUDY    62  50  64 W3        30.22F
6HR MIN TEMP:  38; 6HR MAX TEMP:  63;


$$




USA.gov is the U.S. government's official web portal to all federal, state and local government web resources and services.